| time (UTC) | temp C | wind direction | speed KPH | gust KPH | rain 1hr cm | rain 24hr cm | rain mn cm | humidity % | barometer mb |
| 20260504173733 | 13 | 242 | 11.3 | 24.1 | 0.00 | 1.70 | 0.00 | 69 | 1013.4 |
| 20260504170734 | 13 | 278 | 11.3 | 22.5 | 0.00 | 1.80 | 0.00 | 69 | 1012.6 |
| 20260504150734 | 14 | 167 | 9.7 | 29.0 | 0.00 | 11.20 | 0.00 | 67 | 1011.0 |
| 20260504140737 | 15 | 262 | 11.3 | 30.6 | 0.00 | 15.09 | 2.24 | 68 | 1010.5 |
| 20260504130734 | 15 | 49 | 12.9 | 27.4 | 0.00 | 17.30 | 2.24 | 68 | 1010.2 |
| 20260504080735 | 21 | 257 | 11.3 | 40.2 | 0.00 | 21.21 | 2.24 | 60 | 1003.5 |
| 20260504050746 | 25 | 246 | 14.5 | 32.2 | 0.00 | 21.21 | 2.24 | 51 | 1001.8 |
| 20260504043747 | 25 | 254 | 14.5 | 43.5 | 0.00 | 21.21 | 2.24 | 55 | 1001.9 |
| 20260504040748 | 25 | 257 | 14.5 | 40.2 | 0.00 | 21.21 | 2.24 | 60 | 1002.0 |
| 20260504033746 | 25 | 290 | 11.3 | 24.1 | 0.00 | 21.21 | 2.24 | 65 | 1001.6 |
| 20260504030747 | 25 | 262 | 9.7 | 35.4 | 0.00 | 21.21 | 2.24 | 70 | 1002.1 |
| 20260504023748 | 24 | 259 | 9.7 | 25.7 | 0.00 | 21.21 | 2.24 | 74 | 1002.1 |
| 20260504013805 | 23 | 246 | 12.9 | 22.5 | 0.00 | 21.21 | 2.24 | 76 | 1002.2 |
| 20260504010745 | 22 | 262 | 4.8 | 19.3 | 0.00 | 21.21 | 2.24 | 80 | 1002.8 |
| 20260504003742 | 22 | 264 | 6.4 | 24.1 | 0.00 | 21.21 | 2.24 | 84 | 1002.9 |
| 20260504000804 | 21 | 252 | 8.0 | 17.7 | 0.00 | 21.21 | 2.24 | 93 | 1003.2 |
| 20260503233743 | 20 | 253 | 6.4 | 16.1 | 0.00 | 21.21 | 2.24 | 100 | 1002.7 |
| 20260503230744 | 19 | 266 | 4.8 | 12.9 | 0.00 | 21.21 | 2.24 | 100 | 1002.5 |
| 20260503223743 | 19 | 258 | 6.4 | 17.7 | 0.00 | 21.21 | 2.24 | 100 | 1002.3 |
| 20260503220804 | 19 | 264 | 6.4 | 16.1 | 0.00 | 21.21 | 2.24 | 100 | 1001.7 |
| 20260503213740 | 19 | 252 | 3.2 | 14.5 | 0.00 | 21.21 | 2.24 | 100 | 1001.3 |
| 20260503210741 | 20 | 257 | 6.4 | 17.7 | 0.41 | 21.21 | 2.24 | 100 | 1001.1 |
| 20260503203743 | 20 | 256 | 6.4 | 17.7 | 0.51 | 21.21 | 2.24 | 100 | 1001.4 |
| 20260503200804 | 20 | 347 | 9.7 | 22.5 | 0.71 | 20.80 | 2.16 | 100 | 1000.5 |
| 20260503193744 | 20 | 312 | 8.0 | 22.5 | 1.19 | 20.70 | 2.13 | 100 | 1000.5 |
| 20260503190805 | 20 | 269 | 6.4 | 17.7 | 0.61 | 20.09 | 2.03 | 100 | 1000.8 |
| 20260503183745 | 20 | 316 | 6.4 | 14.5 | 0.00 | 19.51 | 1.91 | 100 | 1001.1 |
| 20260503180742 | 19 | 56 | 4.8 | 12.9 | 0.10 | 19.51 | 1.91 | 100 | 1002.2 |